[ hide orbit diagram ]
For accurate long-term ephemerides, please instead use our Horizons system.This orbit viewer was implemented using two-body methods, and hence should not be used for determining accurate long-term trajectories (over several years or decades) or planetary encounter circumstances.
Orbital Elements at Epoch 2459000.5 (2020-May-31.0) TDB
Reference: JPL 26 (heliocentric ecliptic J2000)
Element | Value | Uncertainty (1-sigma) | Units |
e | .04482231326270882 | 5.1649e-08 | |
a | 3.113739651305406 | 2.6387e-08 | au |
q | 2.974174637236078 | 1.5964e-07 | au |
i | 21.1237815641472 | 3.9191e-06 | deg |
node | 285.7781197193102 | 1.3421e-05 | deg |
peri | 74.66987759727796 | 4.6619e-05 | deg |
M | 62.10868064012565 | 4.3565e-05 | deg |
tp | 2458654.264435489313 (2019-Jun-19.76443549) | 0.00024368 | TDB |
period | 2006.882161063329 5.49 | 2.5511e-05 6.985e-08 | d yr |
n | .1793827295815202 | 2.2803e-09 | deg/d |
Q | 3.253304665374735 | 2.757e-08 | au |
|
| | Orbit Determination Parameters
Additional Information
|
[ show covariance matrix ]
Physical Parameter Table
Parameter |
Symbol |
Value |
Units |
Sigma |
Reference |
Notes |
absolute magnitude |
H |
13.8 |
|
n/a |
MPO502628 |
|
diameter |
diameter |
10.473 |
km |
0.372 |
urn:nasa:pds:neowise_diameters_albedos::2.0[mainbelt] (http://adsabs.harvard.edu/abs/2011ApJ...741...68M) |
|
geometric albedo |
albedo |
0.064 |
|
0.010 |
urn:nasa:pds:neowise_diameters_albedos::2.0[mainbelt] (http://adsabs.harvard.edu/abs/2011ApJ...741...68M) |
|
|
78188 (2002 NE39) Discovered 2002-Jul-13 by LINEAR at Socorro |
Reference: 20040415/Numbers.arc | Last Updated: 2004-04-19 |
|
|